EW8978 Weather Reports


Display with metric or nautical units.
time (UTC)temp
F
wind
direction
speed
MPH
gust
MPH
rain 1hr
in
rain 24hr
in
rain mn
in
humidity
%
barometer
mb
20260507060034 0 0.0 0.0 0.00 0.00 0.00 1004.2
20260507054514 0 0.0 0.0 0.00 0.00 0.00 1004.4
20260507053008 0 0.0 0.0 0.00 0.00 0.00 1004.8
20260507051508 0 0.0 0.0 0.00 0.00 0.00 1004.9
20260507050035 0 0.0 0.0 0.00 0.00 0.00 1005.1
20260507044526 0 0.0 0.0 0.00 0.00 0.00 1005.1
20260507043020 0 0.0 0.0 0.00 0.00 0.00 1005.0
20260507041515 0 0.0 0.0 0.00 0.00 0.00 1005.2
20260507040011 0 0.0 0.0 0.00 0.00 0.00 1005.4
20260507034520 0 0.0 0.0 0.00 0.00 0.00 1005.2
20260507033104 0 0.0 0.0 0.00 0.00 0.00 1005.2
20260507031609 0 0.0 0.0 0.00 0.00 0.00 1005.4
20260507030051 0 0.0 0.0 0.00 0.00 0.00 1005.1
20260507024547 0 0.0 0.0 0.00 0.00 0.00 1005.3
20260507023040 0 0.0 0.0 0.00 0.00 0.00 1005.8
20260507021538 0 0.0 0.0 0.00 0.00 0.00 1006.0
20260507020041 0 0.0 0.0 0.00 0.00 0.00 1006.0
20260507014527 0 0.0 0.0 0.00 0.00 0.00 1006.1
20260507013038 0 0.0 0.0 0.00 0.00 0.00 1006.1
20260507011516 0 0.0 0.0 0.00 0.00 0.00 1006.0
20260507010011 0 0.0 0.0 0.00 0.00 0.00 1006.3
20260507004507 0 0.0 0.0 0.00 0.00 0.00 1006.2
20260507003100 0 0.0 0.0 0.00 0.00 0.00 1006.0
20260507001557 0 0.0 0.0 0.00 0.00 0.00 1006.1
20260507000052 0 0.0 0.0 0.00 0.00 0.00 1006.1
20260506234549 0 0.0 0.0 0.00 0.00 0.00 1006.0
20260506233056 0 0.0 0.0 0.00 0.00 0.00 1006.3
20260506231540 0 0.0 0.0 0.00 0.00 0.00 1006.7
20260506230032 0 0.0 0.0 0.00 0.00 0.00 1006.8
20260506224528 0 0.0 0.0 0.00 0.00 0.00 1006.9
20260506223023 0 0.0 0.0 0.00 0.00 0.00 1006.9
20260506221520 58 217 28.0 35.0 0.00 0.00 0.00 90 1006.8
20260506220027 58 210 26.0 35.0 0.00 0.00 0.00 90 1006.8
20260506214519 58 218 24.0 33.0 0.00 0.00 0.00 90 1006.9
20260506213017 58 213 28.0 34.0 0.00 0.00 0.00 90 1007.1
20260506211546 58 215 28.0 35.0 0.00 0.00 0.00 90 1007.3
20260506210045 58 214 30.0 36.0 0.00 0.00 0.00 89 1007.1
20260506204513 58 212 27.0 36.0 0.00 0.00 0.00 89 1007.3
20260506203012 58 209 29.0 38.0 0.00 0.00 0.00 89 1007.6
20260506201508 58 215 28.0 33.0 0.00 0.00 0.00 88 1007.7
20260506200013 58 217 25.0 32.0 0.00 0.00 0.00 88 1007.8
20260506194508 58 218 26.0 33.0 0.00 0.00 0.00 88 1008.1
20260506194504 58 215 26.0 33.0 0.00 0.00 0.00 88 1008.1
20260506193003 58 194 26.0 33.0 0.00 0.00 0.00 88 1008.2
20260506191559 58 214 26.0 37.0 0.00 0.00 0.00 87 1008.1
20260506190059 58 207 26.0 34.0 0.00 0.00 0.00 88 1008.2
20260506184604 58 213 29.0 35.0 0.00 0.00 0.00 87 1008.5
20260506183054 59 214 27.0 35.0 0.00 0.00 0.00 87 1008.7
20260506181550 59 209 29.0 36.0 0.00 0.00 0.00 87 1009.0
20260506180049 60 214 28.0 34.0 0.00 0.00 0.00 86 1009.3
20260506174549 59 211 28.0 36.0 0.00 0.00 0.00 87 1009.2
20260506173058 59 198 29.0 35.0 0.00 0.00 0.00 87 1009.3
20260506171514 59 218 29.0 34.0 0.00 0.00 0.00 87 1009.4
20260506170012 59 200 28.0 35.0 0.00 0.00 0.00 87 1009.9
20260506164508 59 213 28.0 35.0 0.00 0.00 0.00 87 1010.0
20260506163005 59 212 28.0 34.0 0.00 0.00 0.00 86 1010.3
20260506161503 59 198 27.0 33.0 0.00 0.00 0.00 87 1010.3
20260506160006 60 219 28.0 34.0 0.00 0.00 0.00 85 1010.6
20260506154558 59 216 28.0 34.0 0.00 0.00 0.00 86 1010.8
20260506153101 59 219 24.0 30.0 0.00 0.00 0.00 86 1011.1
20260506151556 60 222 23.0 32.0 0.00 0.00 0.00 85 1011.2
20260506150054 59 213 25.0 31.0 0.00 0.00 0.00 87 1010.9
20260506144551 59 207 24.0 32.0 0.00 0.00 0.00 86 1010.8
20260506143049 59 219 23.0 32.0 0.00 0.00 0.00 87 1010.7
20260506141605 58 220 27.0 33.0 0.00 0.00 0.00 88 1010.8
20260506140047 59 218 26.0 32.0 0.00 0.00 0.00 87 1011.1
20260506134543 59 219 24.0 31.0 0.00 0.00 0.00 86 1011.0
20260506133041 59 224 22.0 31.0 0.00 0.00 0.00 87 1010.9
20260506131540 58 213 21.0 31.0 0.00 0.00 0.00 88 1010.9
20260506130040 58 202 22.0 28.0 0.00 0.00 0.00 88 1010.9
20260506124509 58 220 21.0 31.0 0.00 0.00 0.00 88 1011.0
20260506123009 58 221 24.0 32.0 0.00 0.00 0.00 89 1010.8
20260506121503 58 205 21.0 29.0 0.00 0.00 0.00 88 1011.2
20260506120003 58 207 17.0 26.0 0.00 0.00 0.00 89 1011.3
20260506114503 58 222 19.0 28.0 0.00 0.00 0.00 87 1011.2
20260506113109 58 200 17.0 29.0 0.00 0.00 0.00 88 1011.2
20260506111555 58 229 14.0 26.0 0.00 0.00 0.00 89 1011.2
20260506110056 58 222 16.0 23.0 0.00 0.00 0.00 89 1011.2
20260506104555 58 203 13.0 25.0 0.00 0.00 0.00 90 1011.1
20260506103053 57 218 15.0 26.0 0.00 0.00 0.00 90 1011.0
20260506101549 0 0.0 0.0 0.00 0.00 0.00 1011.1
20260506100013 0 0.0 0.0 0.00 0.00 0.00 1011.1
20260506094526 0 0.0 0.0 0.00 0.00 0.00 1011.2
20260506093009 0 0.0 0.0 0.00 0.00 0.00 1011.3
20260506091508 0 0.0 0.0 0.00 0.00 0.00 1011.1
20260506090007 0 0.0 0.0 0.00 0.00 0.00 1011.1
20260506084507 0 0.0 0.0 0.00 0.00 0.00 1011.3
20260506083042 0 0.0 0.0 0.00 0.00 0.00 1011.4
20260506081537 0 0.0 0.0 0.00 0.00 0.00 1011.3
20260506073003 0 0.0 0.0 0.00 0.00 0.00 1011.3
20260506071506 0 0.0 0.0 0.00 0.00 0.00 1011.3
20260506061603 0 0.0 0.0 0.00 0.00 0.00 1011.3